| time (UTC) | temp F | wind direction | speed MPH | gust MPH | rain 1hr in | rain 24hr in | rain mn in | humidity % | barometer mb |
| 20260504224912 | 63 | 263 | 11.0 | 18.0 | 0.00 | 0.00 | 0.00 | 52 | 1015.5 |
| 20260504223412 | 64 | 307 | 14.0 | 27.0 | 0.00 | 0.00 | 0.00 | 51 | 1015.8 |
| 20260504221911 | 64 | 261 | 6.0 | 25.0 | 0.00 | 0.00 | 0.00 | 51 | 1015.6 |
| 20260504220411 | 64 | 258 | 2.0 | 13.0 | 0.00 | 0.00 | 0.00 | 52 | 1015.7 |
| 20260504214911 | 64 | 177 | 3.0 | 5.0 | 0.00 | 0.00 | 0.00 | 51 | 1016.1 |
| 20260504213411 | 65 | 269 | 3.0 | 14.0 | 0.00 | 0.00 | 0.00 | 51 | 1016.0 |
| 20260504211911 | 65 | 256 | 8.0 | 18.0 | 0.00 | 0.00 | 0.00 | 50 | 1016.0 |
| 20260504210411 | 65 | 236 | 3.0 | 16.0 | 0.00 | 0.00 | 0.00 | 51 | 1016.2 |
| 20260504204912 | 65 | 296 | 11.0 | 16.0 | 0.00 | 0.00 | 0.00 | 50 | 1016.0 |
| 20260504203412 | 65 | 297 | 9.0 | 13.0 | 0.00 | 0.00 | 0.00 | 51 | 1016.1 |
| 20260504201912 | 65 | 283 | 5.0 | 10.0 | 0.00 | 0.00 | 0.00 | 49 | 1016.1 |
| 20260504200411 | 66 | 310 | 11.0 | 16.0 | 0.00 | 0.00 | 0.00 | 48 | 1016.1 |
| 20260504194912 | 66 | 227 | 8.0 | 15.0 | 0.00 | 0.00 | 0.00 | 48 | 1016.0 |
| 20260504193411 | 67 | 302 | 10.0 | 16.0 | 0.00 | 0.00 | 0.00 | 46 | 1015.9 |
| 20260504191911 | 67 | 287 | 9.0 | 14.0 | 0.00 | 0.00 | 0.00 | 45 | 1015.7 |
| 20260504190411 | 68 | 259 | 12.0 | 18.0 | 0.00 | 0.00 | 0.00 | 42 | 1015.7 |
| 20260504184911 | 68 | 320 | 12.0 | 23.0 | 0.00 | 0.00 | 0.00 | 42 | 1015.4 |
| 20260504180411 | 69 | 267 | 8.0 | 14.0 | 0.00 | 0.00 | 0.00 | 45 | 1015.2 |
| 20260504174911 | 69 | 257 | 9.0 | 17.0 | 0.00 | 0.00 | 0.00 | 44 | 1015.1 |
| 20260504173411 | 70 | 252 | 5.0 | 10.0 | 0.00 | 0.00 | 0.00 | 43 | 1015.1 |
| 20260504171911 | 70 | 251 | 5.0 | 8.0 | 0.00 | 0.28 | 0.00 | 40 | 1015.1 |
| 20260504170411 | 71 | 224 | 8.0 | 13.0 | 0.00 | 0.00 | 0.00 | 39 | 1015.0 |
| 20260504160412 | 75 | 218 | 5.0 | 12.0 | 0.00 | 0.00 | 0.00 | 38 | 1015.1 |
| 20260504150411 | 76 | 231 | 6.0 | 11.0 | 0.00 | 0.00 | 0.00 | 36 | 1015.3 |
| 20260504130410 | 78 | 309 | 12.0 | 19.0 | 0.00 | 0.00 | 0.00 | 37 | 1015.6 |
| 20260504110410 | 75 | 123 | 2.0 | 11.0 | 0.00 | 0.00 | 0.00 | 41 | 1016.9 |
| 20260504100409 | 72 | 259 | 7.0 | 14.0 | 0.00 | 0.00 | 0.00 | 46 | 1017.6 |
| 20260504081911 | 63 | 46 | 3.0 | 4.0 | 0.00 | 0.00 | 0.00 | 65 | 1018.0 |
| 20260504080411 | 61 | 75 | 2.0 | 5.0 | 0.00 | 0.00 | 0.00 | 68 | 1018.1 |
| 20260504070411 | 56 | 331 | 1.0 | 2.0 | 0.00 | 0.00 | 0.00 | 72 | 1018.1 |
| 20260504050415 | 46 | 158 | 0.0 | 0.0 | 0.00 | 0.00 | 0.00 | 87 | 1017.6 |
| 20260504044915 | 45 | 158 | 0.0 | 0.0 | 0.00 | 0.00 | 0.00 | 88 | 1017.6 |
| 20260504043415 | 45 | 158 | 0.0 | 0.0 | 0.00 | 0.00 | 0.00 | 88 | 1017.5 |
| 20260504041914 | 45 | 159 | 0.0 | 0.0 | 0.00 | 0.00 | 0.00 | 87 | 1017.5 |
| 20260504040414 | 45 | 158 | 0.0 | 0.0 | 0.00 | 0.00 | 0.00 | 87 | 1017.5 |
| 20260504034914 | 45 | 158 | 0.0 | 0.0 | 0.00 | 0.00 | 0.00 | 86 | 1017.5 |
| 20260504033414 | 46 | 159 | 0.0 | 0.0 | 0.00 | 0.00 | 0.00 | 86 | 1017.4 |
| 20260504031914 | 46 | 158 | 0.0 | 0.0 | 0.00 | 0.00 | 0.00 | 85 | 1017.4 |
| 20260504030414 | 47 | 158 | 0.0 | 0.0 | 0.00 | 0.00 | 0.00 | 84 | 1017.7 |
| 20260504024913 | 47 | 158 | 0.0 | 1.0 | 0.00 | 0.00 | 0.00 | 83 | 1017.7 |
| 20260504023413 | 48 | 158 | 1.0 | 2.0 | 0.00 | 0.00 | 0.00 | 82 | 1017.7 |
| 20260504021913 | 47 | 153 | 0.0 | 0.0 | 0.00 | 0.00 | 0.00 | 83 | 1017.8 |
| 20260504020413 | 48 | 153 | 0.0 | 0.0 | 0.00 | 0.00 | 0.00 | 82 | 1017.8 |
| 20260504014913 | 49 | 153 | 0.0 | 0.0 | 0.00 | 0.00 | 0.00 | 80 | 1017.8 |
| 20260504013413 | 49 | 153 | 0.0 | 0.0 | 0.00 | 0.00 | 0.00 | 79 | 1017.7 |
| 20260504011913 | 49 | 153 | 0.0 | 0.0 | 0.00 | 0.00 | 0.00 | 80 | 1017.7 |
| 20260504004913 | 50 | 153 | 0.0 | 2.0 | 0.00 | 0.00 | 0.00 | 77 | 1017.7 |
| 20260504003412 | 51 | 153 | 1.0 | 2.0 | 0.00 | 0.00 | 0.00 | 74 | 1017.9 |
| 20260504001912 | 51 | 163 | 0.0 | 0.0 | 0.00 | 0.00 | 0.00 | 74 | 1017.8 |
| 20260504000412 | 51 | 163 | 0.0 | 0.0 | 0.00 | 0.00 | 0.00 | 76 | 1018.0 |
| 20260503234912 | 51 | 163 | 0.0 | 0.0 | 0.00 | 0.00 | 0.00 | 75 | 1018.0 |